CHINASAT 9A (ZX 9A) (42763 NORAD) Tracking and Keplerian Element Data

This shows tracking and keplerian element data for the satellite.

Feedback or suggestion? Click here.




ElementValue
Catalog42763
NameCHINASAT 9A (ZX 9A)
Epoch Orbit1626
Epoch Day260.76312653
Epoch Year2021
RAAN96.4937
Inclination0.5294
Eccentricity0.0003022
Argument of Perigee333.2622
Mean Anonmoly290.2769
Mean Motion0.99777033
Decay Rate-1.31E-06
L11 42763U 17035A 21260.76312653 -.00000131 00000-0 00000-0 0 9998
L22 42763 0.5294 96.4937 0003022 333.2622 290.2769 0.99777033 16265



Live tracking and technical data element details for CHINASAT 9A (ZX 9A) (NORAD 42763). CHINASAT 9A (ZX 9A) can be tracked NOW for your location showing map with azimuth and elevation plus other details from your city location.







IsCatalogInMostPopularTable: catalog: 42763, numindb: 605
Update: records affected: 1



GetName: 42763 CHINASAT 9A (ZX 9A)

Hit Count: updated at: Thu, 22 May 2025 04:15:58 GMT